FW6610 Weather Reports


Display with metric or nautical units.
time (UTC)temp
F
wind
direction
speed
MPH
gust
MPH
rain 1hr
in
rain 24hr
in
rain mn
in
humidity
%
barometer
mb
20260506030528 63 151 0.0 3.0 0.00 0.00 0.00 70 1009.7
20260506030043 63 171 1.0 3.0 0.00 0.00 0.00 70 1009.6
20260506025604 63 157 0.0 3.0 0.00 0.00 0.00 70 1009.7
20260506025028 63 162 1.0 3.0 0.00 0.00 0.00 69 1009.7
20260506024540 63 160 0.0 4.0 0.00 0.00 0.00 69 1009.7
20260506024025 64 153 0.0 4.0 0.00 0.00 0.00 69 1009.6
20260506023527 64 219 1.0 3.0 0.00 0.00 0.00 69 1009.6
20260506023043 64 156 1.0 2.0 0.00 0.00 0.00 69 1009.6
20260506022528 64 156 1.0 2.0 0.00 0.00 0.00 69 1009.6
20260506022028 64 147 0.0 2.0 0.00 0.00 0.00 69 1009.5
20260506021538 64 161 0.0 2.0 0.00 0.00 0.00 69 1009.5
20260506021028 65 157 1.0 2.0 0.00 0.00 0.00 68 1009.5
20260506020528 65 150 0.0 4.0 0.00 0.00 0.00 68 1009.4
20260506020051 65 151 0.0 4.0 0.00 0.00 0.00 68 1009.4
20260506015526 65 128 1.0 4.0 0.00 0.00 0.00 67 1009.4
20260506015029 65 213 0.0 3.0 0.00 0.00 0.00 67 1009.4
20260506014544 65 164 1.0 2.0 0.00 0.00 0.00 67 1009.5
20260506014025 65 157 0.0 2.0 0.00 0.00 0.00 68 1009.4
20260506013525 65 148 1.0 2.0 0.00 0.00 0.00 67 1009.4
20260506013052 66 0 0.0 2.0 0.00 0.00 0.00 67 1009.2
20260506012527 66 162 1.0 3.0 0.00 0.00 0.00 66 1009.3
20260506012026 66 195 0.0 3.0 0.00 0.00 0.00 66 1009.2
20260506011545 67 135 1.0 3.0 0.00 0.00 0.00 65 1009.1
20260506011025 67 106 1.0 4.0 0.00 0.00 0.00 65 1009.1
20260506010530 67 150 0.0 5.0 0.00 0.00 0.00 64 1009.2
20260506010040 67 120 0.0 5.0 0.00 0.00 0.00 64 1009.1
20260506005528 68 253 1.0 5.0 0.00 0.00 0.00 63 1008.9
20260506005026 68 0 1.0 5.0 0.00 0.00 0.00 63 1008.9
20260506004546 68 150 2.0 5.0 0.00 0.00 0.00 62 1008.9
20260506004026 68 140 1.0 5.0 0.00 0.00 0.00 62 1008.8
20260506003526 69 0 1.0 5.0 0.00 0.00 0.00 62 1008.9
20260506003045 69 175 1.0 7.0 0.00 0.00 0.00 62 1008.6
20260506002525 69 113 2.0 7.0 0.00 0.00 0.00 62 1008.5
20260506002026 69 200 1.0 5.0 0.00 0.00 0.00 61 1008.5
20260506001553 69 138 1.0 6.0 0.00 0.00 0.00 61 1008.3
20260506001026 69 221 2.0 6.0 0.00 0.00 0.00 60 1008.1
20260506000526 69 0 1.0 4.0 0.00 0.00 0.00 61 1008.0
20260506000044 70 135 1.0 4.0 0.00 0.00 0.00 61 1007.8
20260505235525 70 148 1.0 4.0 0.00 0.00 0.00 60 1007.7
20260505235025 70 118 1.0 5.0 0.00 0.00 0.00 60 1007.5
20260505234543 71 188 2.0 7.0 0.00 0.00 0.00 60 1007.5
20260505234025 71 146 2.0 7.0 0.00 0.00 0.00 59 1007.4
20260505233530 71 209 2.0 5.0 0.00 0.00 0.00 59 1007.3
20260505233038 71 148 2.0 5.0 0.00 0.00 0.00 58 1007.2
20260505232525 72 154 1.0 5.0 0.00 0.00 0.00 58 1007.1
20260505232026 72 150 2.0 8.0 0.00 0.00 0.00 57 1007.1
20260505231537 72 148 3.0 8.0 0.00 0.00 0.00 56 1006.9
20260505231026 73 137 3.0 7.0 0.00 0.00 0.00 56 1006.7
20260505230528 73 160 2.0 7.0 0.00 0.00 0.00 55 1006.6
20260505230052 73 146 1.0 7.0 0.00 0.00 0.00 56 1006.7
20260505225529 73 221 3.0 8.0 0.00 0.00 0.00 56 1006.7
20260505225030 74 143 2.0 8.0 0.00 0.00 0.00 54 1006.6
20260505224535 74 143 3.0 7.0 0.00 0.00 0.00 54 1006.6
20260505224025 74 147 3.0 8.0 0.00 0.00 0.00 53 1006.5
20260505223529 75 93 3.0 10.0 0.00 0.00 0.00 52 1006.5
20260505223045 75 221 3.0 10.0 0.00 0.00 0.00 52 1006.2
20260505222527 76 157 4.0 10.0 0.00 0.00 0.00 51 1006.4
20260505222025 76 137 3.0 11.0 0.00 0.00 0.00 50 1006.1
20260505221550 77 177 3.0 11.0 0.00 0.00 0.00 50 1006.2
20260505221029 77 156 3.0 11.0 0.00 0.00 0.00 50 1006.1
20260505220525 77 193 4.0 12.0 0.00 0.00 0.00 50 1006.1
20260505220052 77 199 4.0 12.0 0.00 0.00 0.00 50 1006.0
20260505215531 77 184 3.0 12.0 0.00 0.00 0.00 49 1006.0
20260505215028 78 136 3.0 9.0 0.00 0.00 0.00 49 1005.9
20260505214539 78 158 4.0 13.0 0.00 0.00 0.00 50 1005.9
20260505214026 78 153 5.0 13.0 0.00 0.00 0.00 49 1005.8
20260505213527 78 113 4.0 13.0 0.00 0.00 0.00 49 1005.8
20260505213042 79 184 4.0 13.0 0.00 0.00 0.00 48 1005.4
20260505212527 79 174 4.0 8.0 0.00 0.00 0.00 48 1005.4
20260505212030 79 139 4.0 12.0 0.00 0.00 0.00 48 1005.5
20260505211549 79 147 4.0 12.0 0.00 0.00 0.00 48 1005.5
20260505211026 79 217 5.0 14.0 0.00 0.00 0.00 49 1005.6
20260505210525 79 132 5.0 14.0 0.00 0.00 0.00 50 1005.6
20260505210043 79 124 4.0 11.0 0.00 0.00 0.00 50 1005.7
20260505205526 79 115 3.0 13.0 0.00 0.00 0.00 49 1005.4
20260505205031 79 148 4.0 13.0 0.00 0.00 0.00 48 1005.4
20260505204542 79 214 4.0 11.0 0.00 0.00 0.00 47 1005.3
20260505204032 79 99 3.0 11.0 0.00 0.00 0.00 48 1005.4
20260505203530 79 172 5.0 15.0 0.00 0.00 0.00 48 1005.5
20260505203037 80 165 4.0 15.0 0.00 0.00 0.00 47 1005.3
20260505202530 80 167 2.0 8.0 0.00 0.00 0.00 48 1005.4
20260505202029 81 147 4.0 9.0 0.00 0.00 0.00 46 1005.3
20260505201536 80 232 4.0 9.0 0.00 0.00 0.00 47 1005.6
20260505201033 81 162 4.0 9.0 0.00 0.00 0.00 47 1005.5
20260505200530 80 201 5.0 9.0 0.00 0.00 0.00 46 1005.6
20260505200043 81 205 4.0 9.0 0.00 0.00 0.00 45 1005.6
20260505195530 81 170 2.0 10.0 0.00 0.00 0.00 52 1005.5
20260505195030 81 179 4.0 11.0 0.00 0.00 0.00 48 1005.4
20260505194545 81 217 4.0 11.0 0.00 0.00 0.00 46 1005.4
20260505194030 80 152 4.0 10.0 0.00 0.00 0.00 47 1005.6
20260505193531 81 138 4.0 8.0 0.00 0.00 0.00 45 1005.5
20260505193050 81 217 3.0 8.0 0.00 0.00 0.00 44 1005.5
20260505192535 81 192 3.0 9.0 0.00 0.00 0.00 45 1005.6
20260505192032 82 176 4.0 11.0 0.00 0.00 0.00 44 1005.8
20260505191543 83 154 4.0 15.0 0.00 0.00 0.00 35 1005.7
20260505191029 83 165 5.0 15.0 0.00 0.00 0.00 37 1005.6
20260505190530 83 206 4.0 8.0 0.00 0.00 0.00 37 1005.7
20260505190043 83 178 2.0 8.0 0.00 0.00 0.00 37 1005.9
20260505185530 83 185 3.0 16.0 0.00 0.00 0.00 38 1005.8
20260505185032 83 141 7.0 18.0 0.00 0.00 0.00 37 1005.9
20260505184536 83 211 7.0 18.0 0.00 0.00 0.00 38 1005.9
20260505184027 82 157 3.0 7.0 0.00 0.00 0.00 45 1006.0
20260505183528 81 124 1.0 7.0 0.00 0.00 0.00 52 1006.0
20260505183044 80 208 3.0 9.0 0.00 0.00 0.00 47 1006.1
20260505182530 80 143 4.0 9.0 0.00 0.00 0.00 47 1006.4
20260505182027 82 150 3.0 10.0 0.00 0.00 0.00 45 1006.2
20260505181546 81 122 4.0 10.0 0.00 0.00 0.00 48 1006.1
20260505181030 80 173 3.0 7.0 0.00 0.00 0.00 47 1006.2
20260505180530 81 129 4.0 7.0 0.00 0.00 0.00 45 1006.2
20260505180040 81 150 5.0 7.0 0.00 0.00 0.00 44 1006.5
20260505175530 82 145 2.0 8.0 0.00 0.00 0.00 46 1006.4
20260505175031 82 109 3.0 9.0 0.00 0.00 0.00 48 1006.7
20260505174549 82 152 4.0 14.0 0.00 0.00 0.00 47 1006.6
20260505174027 82 150 4.0 14.0 0.00 0.00 0.00 47 1006.7
20260505173526 82 184 4.0 9.0 0.00 0.00 0.00 47 1006.7
20260505173035 82 119 3.0 9.0 0.00 0.00 0.00 50 1006.7
20260505172526 81 139 2.0 9.0 0.00 0.00 0.00 51 1006.8
20260505172029 81 136 4.0 9.0 0.00 0.00 0.00 48 1006.8
20260505171545 81 198 4.0 9.0 0.00 0.00 0.00 49 1006.8
20260505171029 81 139 3.0 8.0 0.00 0.00 0.00 48 1006.9
20260505170528 80 163 2.0 11.0 0.00 0.00 0.00 52 1007.1
20260505170043 79 240 4.0 11.0 0.00 0.00 0.00 48 1007.2
20260505165527 80 129 3.0 7.0 0.00 0.00 0.00 53 1007.3
20260505165031 79 121 3.0 7.0 0.00 0.00 0.00 55 1007.1
20260505164544 80 192 4.0 6.0 0.00 0.00 0.00 51 1007.3
20260505164027 80 123 3.0 8.0 0.00 0.00 0.00 51 1007.5
20260505163528 79 192 3.0 8.0 0.00 0.00 0.00 52 1007.5
20260505163041 79 177 2.0 7.0 0.00 0.00 0.00 52 1007.7
20260505162529 78 165 4.0 6.0 0.00 0.00 0.00 53 1007.9
20260505162027 78 169 2.0 5.0 0.00 0.00 0.00 54 1008.1
20260505161543 77 165 2.0 7.0 0.00 0.00 0.00 53 1008.1
20260505161028 77 155 3.0 8.0 0.00 0.00 0.00 56 1008.2
20260505160528 77 261 2.0 8.0 0.00 0.00 0.00 56 1008.2
20260505153043 75 167 2.0 6.0 0.00 0.00 0.00 56 1008.7
20260505152529 74 157 2.0 6.0 0.00 0.00 0.00 58 1008.7
20260505152028 74 140 3.0 6.0 0.00 0.00 0.00 57 1008.8
20260505151538 74 119 2.0 6.0 0.00 0.00 0.00 56 1009.0
20260505151029 73 188 2.0 6.0 0.00 0.00 0.00 59 1009.0
20260505150531 73 200 2.0 6.0 0.00 0.00 0.00 60 1009.1
20260505140530 66 215 1.0 4.0 0.00 0.00 0.00 69 1009.8
20260505125030 59 166 0.0 3.0 0.00 0.00 0.00 78 1010.2
20260505124547 58 160 0.0 4.0 0.00 0.00 0.00 77 1010.3
20260505124033 58 152 1.0 4.0 0.00 0.00 0.00 78 1010.3
20260505123531 58 127 0.0 3.0 0.00 0.00 0.00 78 1010.2
20260505123043 57 159 1.0 3.0 0.00 0.00 0.00 80 1010.3
20260505122531 57 246 0.0 3.0 0.00 0.00 0.00 80 1010.2
20260505122030 56 0 1.0 2.0 0.00 0.00 0.00 81 1010.3
20260505121543 56 250 1.0 2.0 0.00 0.00 0.00 81 1010.1
20260505121030 55 139 0.0 2.0 0.00 0.00 0.00 83 1010.1
20260505120532 54 0 0.0 2.0 0.00 0.00 0.00 84 1010.3
20260505120038 54 0 0.0 1.0 0.00 0.00 0.00 85 1010.3
20260505115529 53 0 0.0 0.0 0.00 0.00 0.00 86 1010.3
20260505115030 52 0 0.0 1.0 0.00 0.00 0.00 88 1010.2
20260505114535 52 0 0.0 1.0 0.00 0.00 0.00 87 1010.2
20260505114030 52 0 0.0 1.0 0.00 0.00 0.00 87 1010.6
20260505113530 52 0 0.0 1.0 0.00 0.00 0.00 88 1010.6
20260505113044 51 0 0.0 1.0 0.00 0.00 0.00 89 1010.5
20260505112530 51 54 0.0 2.0 0.00 0.00 0.00 90 1010.3
20260505112030 50 0 0.0 2.0 0.00 0.00 0.00 90 1010.4
20260505111543 49 228 0.0 2.0 0.00 0.00 0.00 91 1010.6
20260505111030 49 0 0.0 2.0 0.00 0.00 0.00 92 1010.3
20260505110530 48 148 0.0 2.0 0.00 0.00 0.00 93 1010.2
20260505102030 44 0 0.0 0.0 0.00 0.00 0.00 93 1009.7
20260505101550 44 0 0.0 0.0 0.00 0.00 0.00 92 1009.6
20260505101030 44 0 0.0 0.0 0.00 0.00 0.00 93 1009.7
20260505100530 44 0 0.0 0.0 0.00 0.00 0.00 92 1009.7
20260505100045 44 0 0.0 0.0 0.00 0.00 0.00 93 1009.5
20260505095530 44 0 0.0 0.0 0.00 0.00 0.00 92 1009.4
20260505095030 44 0 0.0 0.0 0.00 0.00 0.00 92 1009.7
20260505094547 45 0 0.0 0.0 0.00 0.00 0.00 92 1009.5
20260505094030 45 0 0.0 0.0 0.00 0.00 0.00 91 1009.6
20260505093530 45 0 0.0 0.0 0.00 0.00 0.00 91 1009.5
20260505093043 45 0 0.0 0.0 0.00 0.00 0.00 91 1009.5
20260505092529 46 0 0.0 0.0 0.00 0.00 0.00 91 1009.5
20260505092030 46 0 0.0 0.0 0.00 0.00 0.00 91 1009.6
20260505091540 46 0 0.0 0.0 0.00 0.00 0.00 91 1009.4
20260505091029 46 0 0.0 0.0 0.00 0.00 0.00 91 1009.4
20260505090530 46 0 0.0 0.0 0.00 0.00 0.00 91 1009.5
20260505090048 46 0 0.0 0.0 0.00 0.00 0.00 91 1009.6
20260505085530 46 0 0.0 0.0 0.00 0.00 0.00 92 1009.6
20260505085030 46 0 0.0 0.0 0.00 0.00 0.00 92 1009.7
20260505084552 46 0 0.0 0.0 0.00 0.00 0.00 93 1009.7
20260505084030 45 0 0.0 0.0 0.00 0.00 0.00 93 1009.7
20260505083529 45 0 0.0 0.0 0.00 0.00 0.00 91 1009.8
20260505083055 45 0 0.0 0.0 0.00 0.00 0.00 90 1009.9
20260505082529 45 0 0.0 0.0 0.00 0.00 0.00 90 1009.8
20260505082155 46 0 0.0 0.0 0.00 0.00 0.00 89 1009.8
20260505081547 47 0 0.0 0.0 0.00 0.00 0.00 90 1009.8
20260505081030 47 0 0.0 0.0 0.00 0.00 0.00 91 1009.8
20260505080530 46 0 0.0 0.0 0.00 0.00 0.00 91 1009.8
20260505080048 46 0 0.0 0.0 0.00 0.00 0.00 92 1009.8
20260505075529 46 0 0.0 0.0 0.00 0.00 0.00 92 1009.8
20260505075030 45 0 0.0 0.0 0.00 0.00 0.00 92 1010.0
20260505074539 45 0 0.0 0.0 0.00 0.00 0.00 92 1010.1
20260505074030 45 0 0.0 0.0 0.00 0.00 0.00 92 1010.0
20260505073530 45 0 0.0 0.0 0.00 0.00 0.00 91 1010.0
20260505073046 45 0 0.0 0.0 0.00 0.00 0.00 91 1009.9
20260505072530 45 0 0.0 0.0 0.00 0.00 0.00 91 1009.8
20260505072029 45 0 0.0 0.0 0.00 0.00 0.00 91 1010.0
20260505071547 45 0 0.0 0.0 0.00 0.00 0.00 91 1010.1
20260505071032 45 0 0.0 0.0 0.00 0.00 0.00 91 1010.1
20260505070530 45 0 0.0 0.0 0.00 0.00 0.00 91 1010.1
20260505070041 45 0 0.0 0.0 0.00 0.00 0.00 91 1010.1
20260505065833 45 0 0.0 0.0 0.00 0.00 0.00 90 1010.0
20260505065029 45 0 0.0 0.0 0.00 0.00 0.00 90 1010.1
20260505064543 45 0 0.0 0.0 0.00 0.00 0.00 89 1010.2
20260505064031 46 0 0.0 0.0 0.00 0.00 0.00 89 1010.0
20260505063530 46 0 0.0 0.0 0.00 0.00 0.00 89 1010.1
20260505063042 46 0 0.0 0.0 0.00 0.00 0.00 88 1010.1
20260505062530 46 0 0.0 0.0 0.00 0.00 0.00 88 1010.3
20260505062030 46 0 0.0 0.0 0.00 0.00 0.00 86 1010.2
20260505061539 47 0 0.0 0.0 0.00 0.00 0.00 85 1010.3
20260505061030 47 0 0.0 0.0 0.00 0.00 0.00 86 1010.2
20260505060530 47 0 0.0 0.0 0.00 0.00 0.00 86 1010.3
20260505060049 48 0 0.0 0.0 0.00 0.00 0.00 85 1010.2
20260505055530 48 0 0.0 0.0 0.00 0.00 0.00 85 1010.3
20260505055030 48 0 0.0 0.0 0.00 0.00 0.00 84 1010.2
20260505054541 49 0 0.0 0.0 0.00 0.00 0.00 83 1010.3
20260505054029 49 0 0.0 0.0 0.00 0.00 0.00 83 1010.3
20260505053532 50 0 0.0 0.0 0.00 0.00 0.00 82 1010.4
20260505053038 50 0 0.0 0.0 0.00 0.00 0.00 81 1010.4
20260505052529 50 0 0.0 0.0 0.00 0.00 0.00 81 1010.4
20260505052029 50 0 0.0 0.0 0.00 0.00 0.00 80 1010.4
20260505051541 51 0 0.0 0.0 0.00 0.00 0.00 80 1010.6
20260505051030 51 0 0.0 0.0 0.00 0.00 0.00 79 1010.6
20260505050531 51 0 0.0 0.0 0.00 0.00 0.00 79 1010.6
20260505041535 53 0 0.0 0.0 0.00 0.00 0.00 74 1010.4
20260505041030 53 0 0.0 0.0 0.00 0.00 0.00 74 1010.5
20260505040530 53 0 0.0 0.0 0.00 0.00 0.00 73 1010.5
20260505040044 54 0 0.0 0.0 0.00 0.00 0.00 72 1010.4
20260505035531 54 0 0.0 0.0 0.00 0.00 0.00 72 1010.4
20260505035026 54 0 0.0 0.0 0.00 0.00 0.00 72 1010.4
20260505034540 54 0 0.0 0.0 0.00 0.00 0.00 71 1010.3
20260505034030 54 0 0.0 0.0 0.00 0.00 0.00 71 1010.3
20260505033530 54 0 0.0 0.0 0.00 0.00 0.00 71 1010.3
20260505033046 54 0 0.0 0.0 0.00 0.00 0.00 70 1010.3
20260505032535 55 0 0.0 0.0 0.00 0.00 0.00 70 1010.2
20260505032031 55 0 0.0 0.0 0.00 0.00 0.00 70 1010.2
20260505031551 55 0 0.0 0.0 0.00 0.00 0.00 69 1010.3
20260505031029 55 0 0.0 0.0 0.00 0.00 0.00 69 1010.3